Weather in Orel

Belarus     52°01′11″N   30°51′02″E
temp.,
°C
wind,
m/s
gust,
m/s
humid.,
%
clouds,
%
prec.,
mm/h
press.,
hPa
HPBL,
m
20 april, tue
tue2000:00+7ne3786100 0.1 1016362
03:00+6ne4790100 0.1 1015452
06:00+6ne379092 0.0 1014487
09:00+7ne468299 0.0 1013510
12:00+10nne456969 0.1 10121019
15:00+10nne5563100 0.2 10101432
18:00+8nne477673 0.1 1010814
21:00+7n4790100 0.3 1009503
21 april, wed
wed2100:00+6n4690100 0.1 1009596
03:00+6nnw4692100 0.1 1008515
06:00+5nne2394100 0.8 1009348
09:00+5nne1293100 1.9 1010431
12:00+5sse0192100 0.4 1011241
15:00+10wsw2457100 0.6 10111501
18:00+11sw2460100 0.0 1011873
21:00+8s368193 0.0 1012131
22 april, thu
thu2200:00+6ssw3689100 0.0 101396
03:00+5s3794100 0.0 1013134
06:00+5s379460 0.0 1013122
09:00+10ssw478113 0.0 1013361
12:00+15sw686010 1.3 10131380
15:00+14sw5958100 1.6 1013709
18:00+12s597797 0.5 1013415
21:00+10sw51285100 1.1 1014459
23 april, fri
fri2300:00+9sw4109276 0.5 1014431
03:00+8wnw4894100 0.5 1014408
06:00+7wnw2489100 0.0 1015439
09:00+4wnw3594100 1.7 1016492
12:00+3nw1292100 4.2 1016393
15:00+5ssw2487100 6.6 1016581
18:00+8wnw3562100 0.1 10151230
21:00+4sw2276100 0.1 101629
24 april, sat
sat2400:00+3wsw378889 0.2 1015140
03:00+2w3689100 0.6 1015125
06:00+1w399258 0.0 1015207
09:00+5w5775100 0.0 1015798
12:00+6w686299 0.7 10151464
15:00+7w675698 1.4 10151726
18:00+6w576188 0.7 10151368
21:00+2wsw3376100 0.8 101649